Lid_Strength_Index
1 1 1 1 1 2 2 1 1 1 1 1 1 1 1 1 2 4 7 4 3 -2 -0 6 7 7 8 9 7 6 10 12 10 10 9 7 8 7 4 6 5 4 5 3 2
1 1 1 1 1 2 2 2 1 1 1 1 1 1 1 1 5 7 2 -2 -3 -3 5 7 8 8 9 9 8 9 11 9 7 7 8 7 6 6 6 6 6 5 3 2 2
2 1 1 1 1 2 2 2 1 1 1 1 1 1 1 2 6 5 -3 -3 -3 -2 6 7 7 8 10 10 10 9 11 7 6 6 7 8 8 7 7 8 6 6 5 3 3
2 2 1 2 1 2 2 2 1 1 1 1 1 1 1 4 11 6 -4 -4 -4 3 6 7 8 10 11 11 9 10 9 8 7 7 7 8 7 7 7 6 4 4 3 4 4
2 2 2 2 2 2 2 2 2 1 2 2 1 1 4 6 5 3 -5 -4 3 6 7 8 9 10 11 9 8 10 9 8 7 7 7 6 7 6 7 4 3 3 4 4 4
2 2 2 2 2 2 2 2 2 2 2 2 1 1 4 9 3 2 1 2 4 6 6 7 7 8 8 8 9 8 9 8 8 8 8 6 7 6 6 5 4 4 5 4 4
2 2 2 2 2 2 2 2 3 2 2 1 1 2 5 7 3 4 3 4 4 4 5 5 6 7 8 9 8 9 10 10 10 8 8 6 8 7 6 5 5 5 5 4 4
2 2 2 2 2 2 2 2 2 2 1 1 0 4 8 3 3 4 4 4 4 4 4 4 5 7 8 8 8 10 12 13 10 7 7 8 11 8 5 5 6 6 5 5 5
2 2 2 2 2 2 2 3 2 1 1 1 4 6 6 1 4 3 4 4 4 4 4 3 6 8 8 11 12 12 14 13 10 8 7 9 11 7 6 6 7 6 6 6 6
2 3 3 2 2 2 3 3 3 3 3 2 3 7 5 5 4 3 4 3 4 5 5 7 9 10 11 12 14 14 13 12 11 9 9 11 11 9 7 6 7 7 6 6 5
3 3 3 3 3 3 6 6 7 8 6 7 7 6 4 3 3 4 3 4 5 6 10 8 11 12 11 10 10 10 10 11 10 9 10 12 11 9 8 7 8 7 7 6 5
3 3 3 3 3 3 6 8 6 5 7 5 6 5 3 3 5 5 4 6 7 10 9 10 12 9 8 9 9 10 11 11 10 9 11 11 11 9 8 8 7 7 7 6 6
3 3 3 3 3 6 8 6 5 4 8 5 5 6 5 4 6 6 5 7 8 9 9 11 9 7 7 9 9 11 11 11 11 10 10 11 12 9 8 7 7 6 6 6 6
4 3 3 3 7 7 6 4 5 4 10 7 6 5 5 6 6 4 4 5 7 9 9 10 8 8 9 9 9 12 9 9 9 11 14 11 16 12 10 9 7 8 7 6 5
4 4 4 3 7 7 3 4 4 5 15 7 7 4 5 6 6 5 3 5 8 8 8 9 9 9 9 9 8 10 8 9 9 12 13 13 15 13 10 10 9 8 7 6 6
4 4 4 5 6 6 5 5 5 11 15 9 7 7 8 7 6 5 5 4 5 7 8 9 7 8 8 7 7 7 10 11 11 14 16 14 13 13 12 10 10 8 7 6 6
4 4 5 4 6 5 5 5 11 14 8 9 9 8 8 8 7 6 7 8 10 12 12 9 9 8 6 9 9 10 12 15 16 16 16 13 13 13 11 9 9 9 6 6 5
5 5 5 4 6 5 5 8 15 10 9 7 8 8 9 8 8 7 8 10 8 9 11 12 12 9 7 9 11 11 12 15 19 18 16 12 15 13 9 8 8 8 7 6 6
5 5 5 5 4 4 6 12 12 9 7 7 8 10 11 9 8 8 9 9 7 8 11 12 11 8 7 7 8 11 13 11 14 14 16 14 12 9 9 8 8 8 7 8 7
6 5 5 3 4 4 8 10 9 6 6 6 10 8 11 9 9 10 10 7 7 6 8 10 12 8 7 7 8 10 9 13 14 18 19 15 14 13 10 10 9 9 9 8 8
4 6 4 3 3 6 10 9 7 5 6 7 8 9 9 10 9 10 9 7 6 7 8 9 11 10 8 10 11 10 12 12 13 14 17 18 15 10 10 9 9 9 8 8 8
6 10 3 4 8 9 10 7 7 6 6 6 7 8 9 9 9 10 10 8 6 6 9 9 11 13 11 8 7 9 11 13 15 15 14 15 14 9 9 9 8 8 8 8 8
9 8 4 5 11 11 9 6 5 6 6 6 8 7 7 8 11 9 8 5 6 7 9 9 12 15 13 11 9 10 9 11 12 14 14 16 14 8 8 8 8 8 8 8 8
8 8 8 6 7 9 10 8 8 5 5 6 6 6 8 9 8 10 8 7 5 6 6 7 11 13 15 12 11 11 10 10 12 15 14 13 12 10 9 9 9 9 9 8 8
7 9 7 9 8 8 8 8 8 8 7 7 8 7 8 11 10 10 8 8 7 6 7 9 12 12 11 9 9 10 10 9 12 12 13 12 12 10 9 9 9 8 8 8 8
10 8 6 7 7 8 9 9 9 8 7 8 9 7 8 10 10 11 9 9 9 8 9 9 12 12 12 9 10 11 9 9 9 9 10 10 11 9 9 8 8 8 8 8 7
5 4 7 7 8 10 10 8 8 8 6 5 7 8 9 8 7 8 7 8 7 9 10 10 11 13 15 11 11 13 11 10 9 9 10 11 10 9 8 8 8 8 7 7 7